San Francisco, CA

8:06 PM PDT on September 24, 2016 (GMT -0700)
San Francisco International

Weather History for KSFO - June, 2013

Change the Weather History Date:

Wednesday, June 5, 2013

  Actual Average Record
Temperature  
Mean Temperature 60 °F 61 °F  
Max Temperature 66 °F 70 °F 89 °F (1972)
Min Temperature 54 °F 53 °F 46 °F (1962)
Degree Days  
Heating Degree Days 5 4  
Month to date heating degree days 18 20  
Since 1 June heating degree days 18 20  
Since 1 July heating degree days 2569 2568  
Cooling Degree Days 0 1  
Month to date cooling degree days 0 2  
Year to date cooling degree days 27 21  
Since 1 June cooling degree days 0 2  
Growing Degree Days 10 (Base 50)    
Moisture  
Dew Point 48 °F    
Average Humidity 70    
Maximum Humidity 83    
Minimum Humidity 56    
Precipitation  
Precipitation 0.00 in 0.01 in 0.02 in (1994)
Month to date precipitation 0.00 0.04  
Year to date precipitation 1.84 13.01  
Since 1 July precipitation 12.84  
Sea Level Pressure  
Sea Level Pressure 29.98 in    
Wind  
Wind Speed 13 mph (West)    
Max Wind Speed 21 mph    
Max Gust Speed 26 mph    
Visibility 10 miles    
Events      
T = Trace of Precipitation, MM = Missing Value Source: NWS Daily Summary

Daily Weather History Graph

Daily Weather History Graph

Search for Another Location

Airport or City:

Trip Planner

Search our weather history database for the weather conditions in past years. The results will help you decide how hot, cold, wet, or windy it might be!

Date:

Astronomy

Jun. 05, 2013 Rise Set
Actual Time 5:48 AM PDT 8:28 PM PDT
Civil Twilight 5:17 AM PDT 8:58 PM PDT
Nautical Twilight 4:39 AM PDT 9:37 PM PDT
Astronomical Twilight 3:55 AM PDT 10:20 PM PDT
Moon 3:53 AM PDT (6/5) 6:01 PM PDT (6/5)
Length of Visible Light 15h 41m
Length of Day
14h 39m
Waning Crescent, 7% of the Moon is Illuminated
Jun 5
Waning Crescent
Jun 8
New
Jun 16
First Quarter
Jun 23
Full
Jun 29
Last Quarter

Hourly Weather History & Observations

Time (PDT) Temp. Dew Point Humidity Pressure Visibility Wind Dir Wind Speed Gust Speed Precip Events Conditions
12:56 AM 55.9 °F 48.0 °F 75% 29.99 in 10.0 mi West 11.5 mph - N/A   Scattered Clouds
1:26 AM 55.4 °F 48.2 °F 77% 29.99 in 10.0 mi West 12.7 mph - N/A   Mostly Cloudy
1:56 AM 55.9 °F 48.0 °F 75% 29.99 in 10.0 mi West 11.5 mph - N/A   Mostly Cloudy
2:56 AM 55.0 °F 48.0 °F 77% 29.98 in 10.0 mi West 9.2 mph - N/A   Mostly Cloudy
3:56 AM 55.0 °F 48.0 °F 77% 29.99 in 10.0 mi West 11.5 mph - N/A   Mostly Cloudy
4:56 AM 55.0 °F 48.0 °F 77% 29.99 in 10.0 mi West 11.5 mph - N/A   Overcast
5:56 AM 54.0 °F 46.9 °F 77% 29.99 in 10.0 mi West 11.5 mph - N/A   Overcast
6:56 AM 54.0 °F 46.9 °F 77% 30.00 in 10.0 mi West 11.5 mph - N/A   Overcast
7:56 AM 55.0 °F 48.0 °F 77% 30.01 in 10.0 mi West 9.2 mph - N/A   Overcast
8:56 AM 57.0 °F 48.0 °F 72% 30.01 in 10.0 mi WNW 10.4 mph - N/A   Mostly Cloudy
9:56 AM 59.0 °F 48.9 °F 69% 30.01 in 10.0 mi NW 12.7 mph - N/A   Mostly Cloudy
10:22 AM 60.8 °F 48.2 °F 63% 30.00 in 10.0 mi WNW 13.8 mph - N/A   Scattered Clouds
10:56 AM 61.0 °F 48.0 °F 62% 30.00 in 10.0 mi WNW 13.8 mph - N/A   Partly Cloudy
11:56 AM 62.1 °F 48.0 °F 60% 30.00 in 10.0 mi WNW 15.0 mph - N/A   Partly Cloudy
12:56 PM 64.9 °F 48.0 °F 54% 29.99 in 10.0 mi WNW 18.4 mph - N/A   Partly Cloudy
1:56 PM 64.9 °F 48.0 °F 54% 29.98 in 10.0 mi West 17.3 mph 26.5 mph N/A   Partly Cloudy
2:56 PM 63.0 °F 48.0 °F 58% 29.97 in 10.0 mi WNW 17.3 mph - N/A   Partly Cloudy
3:56 PM 64.9 °F 48.0 °F 54% 29.96 in 10.0 mi West 17.3 mph 21.9 mph N/A   Partly Cloudy
4:56 PM 63.0 °F 48.0 °F 58% 29.96 in 10.0 mi West 17.3 mph - N/A   Scattered Clouds
5:56 PM 62.1 °F 48.0 °F 60% 29.95 in 10.0 mi WNW 15.0 mph - N/A   Scattered Clouds
6:56 PM 60.1 °F 48.0 °F 64% 29.95 in 10.0 mi West 15.0 mph - N/A   Scattered Clouds
7:56 PM 57.0 °F 46.9 °F 69% 29.96 in 10.0 mi WNW 15.0 mph - N/A   Scattered Clouds
8:19 PM 55.4 °F 46.4 °F 72% 29.96 in 10.0 mi WNW 12.7 mph - N/A   Scattered Clouds
8:56 PM 55.0 °F 46.9 °F 74% 29.96 in 10.0 mi WNW 10.4 mph - N/A   Scattered Clouds
9:56 PM 55.0 °F 48.0 °F 77% 29.97 in 10.0 mi West 9.2 mph - N/A   Scattered Clouds
10:56 PM 54.0 °F 48.0 °F 80% 29.97 in 10.0 mi WNW 11.5 mph - N/A   Partly Cloudy
11:56 PM 54.0 °F 48.0 °F 80% 29.97 in 10.0 mi West 9.2 mph - N/A   Partly Cloudy